Location: Plymouth
(43.7490°N, 87.9770°W)
Time: 12:05:30
(UTC-06:00)

Daily predictions for brighter satellites

Satellite Brightness Start Highest point End
(mag) Time Altitude Azimuth Time Altitude Azimuth Time Altitude Azimuth
Cosmos 2227 Rocket 3.6 18:01:33 10° SE 18:04:57 17° E 18:08:23 10° ENE
Cosmos 2219 3.4 17:59:53 10° S 18:05:27 54° ESE 18:11:03 10° NNE
BREEZE-M DEB (TANK) 3.2 18:03:46 10° WNW 18:06:27 56° NNE 18:12:49 10° ESE
Cosmos 1570 Rocket 4.0 18:02:16 10° NNW 18:07:32 75° ENE 18:12:45 10° SSE
Resurs 01 Rocket 2.7 18:07:32 10° ESE 18:11:03 24° ENE 18:14:35 10° NNE
USA 215 3.9 18:06:56 10° NE 18:13:16 53° NNW 18:19:33 10° WSW
Gbstr 26 Del rocket 3.1 18:09:34 10° WSW 18:13:24 59° NNW 18:17:06 10° NE
Cosmos 1025 Rocket 3.5 18:09:55 10° N 18:14:06 41° ENE 18:18:15 10° SSE
NOAA 12 4.1 18:09:25 10° SSE 18:14:42 69° ENE 18:20:01 10° N
Cosmos 1340 3.8 18:11:02 10° NNW 18:14:43 50° W 18:18:22 10° S
Meteor 1-13 Rocket 4.4 18:10:21 10° NNW 18:15:57 80° W 18:21:38 10° S
Spot 2 Rocket 4.3 18:13:08 10° SE 18:17:30 30° ENE 18:21:54 10° N
SL-16 R/B 3.8 18:14:01 10° N 18:17:30 16° NE 18:20:58 10° E
Okean 1 Rocket 3.1 18:13:26 10° S 18:17:54 72° E 18:22:22 10° NNE
FREGAT/IRIS 2.8 18:18:48 10° SSE 18:21:48 51° ENE 18:24:50 10° N
Cosmos 1633 3.4 18:19:02 10° SSW 18:22:39 56° W 18:26:18 10° N
Atlas Centaur 2 4.5 18:21:26 10° S 18:25:22 15° SSE 18:29:02 10° SE
GPS 2-04 Rocket1 4.3 18:22:07 10° WSW 18:25:41 27° S 18:29:21 10° ESE
NOSS 3-1 (C) 4.3 18:20:52 10° NNW 18:28:01 48° NE 18:35:55 10° ESE
ASTRO F (AKARI) 4.5 18:25:43 10° NNE 18:29:12 82° WNW 18:32:29 10° SSW
Abrixas rocket 2.4 18:26:16 10° WSW 18:29:38 74° NNW 18:32:36 13° ENE
OTV 4 2.4 18:27:41 10° SSW 18:29:53 19° SSE 18:31:45 12° ESE
Cosmos 2181 Rocket 4.4 18:24:39 10° NNW 18:30:55 72° W 18:37:15 10° S
Okean 2 3.8 18:27:50 10° N 18:31:50 42° ENE 18:35:49 10° SSE
Cosmos 1536 2.8 18:28:29 10° S 18:32:29 87° E 18:36:29 10° N
FENGYUN 3A 3.8 18:29:08 10° SSE 18:34:25 56° ENE 18:39:43 10° N
Cosmos 1850 Rocket 4.3 18:30:09 10° SSW 18:35:27 75° WNW 18:40:50 10° NNE
Cosmos 2074 Rocket 4.0 18:31:03 10° S 18:37:13 65° E 18:43:27 10° NNE
HJ-1C 3.5 18:37:02 10° SSE 18:40:18 54° ENE 18:43:37 10° N
Cosmos 1980 4.0 18:35:15 10° NNW 18:40:43 48° ENE 18:46:09 10° SE
NOSS 0 Rocket 3.9 18:35:39 10° NNW 18:41:46 63° ENE 18:47:50 10° SE
Cosmos 1544 Rocket 4.1 18:39:43 10° SSE 18:43:37 34° E 18:47:31 10° NNE
USA 186 3.7 18:45:05 12° NE 18:45:05 12° NE 18:45:31 10° NNE
Cosmos 2333 Rocket 2.3 18:38:30 10° NNW 18:44:14 63° ENE 18:49:56 10° SE
Cosmos 2184 Rocket 3.9 18:39:41 10° S 18:45:56 73° E 18:52:10 10° NNE
Helios 1B rocket 3.6 18:43:04 10° NE 18:46:17 21° E 18:49:28 10° SE
Aureole 2 Rocket 4.2 18:47:02 10° NNE 18:48:32 14° NE 18:48:32 14° NE
Cosmos 1437 3.1 18:52:04 10° N 18:55:13 41° ENE 18:56:58 22° SE
Helios 1A 3.6 18:52:56 18° ESE 18:55:24 34° ENE 18:59:10 10° N
Cosmos 1975 3.6 18:52:44 10° SSE 18:56:15 30° E 18:59:49 10° NNE
Cosmos 1500 4.0 18:55:10 10° SSE 18:58:26 28° E 19:01:43 10° NNE
Nadezhda 3 Rocket 4.1 18:55:05 10° N 19:01:07 53° ENE 19:07:10 10° SSE
Cosmos 1515 3.9 18:59:39 10° N 19:03:24 45° ENE 19:05:38 21° SE
Cosmos 1486 Rocket 4.3 18:59:48 10° S 19:04:49 44° ESE 19:09:50 10° NNE
SL-19 R/B 4.4 19:00:10 10° SSE 19:05:56 85° ENE 19:12:13 10° NNW
Cosmos 841 Rocket 3.8 19:03:29 10° N 19:08:23 43° ENE 19:10:38 27° ESE
Cosmos 2082 3.9 19:02:56 10° S 19:08:25 48° ESE 19:13:53 10° NE
Spot 1 4.0 19:11:15 24° SE 19:13:34 56° ENE 19:17:45 10° N
ATLAS CENTAUR R/B 1.6 19:10:14 10° SSW 19:13:24 41° SSE 19:13:24 41° SSE
Cosmos 2154 Rocket 4.0 19:09:29 10° S 19:15:44 66° E 19:22:01 10° NNE
Cosmos 1763 Rocket 3.4 19:12:07 10° NNW 19:17:13 62° ENE 19:20:13 25° SE
Cosmos 2341 Rocket 4.1 19:11:39 10° SSE 19:17:46 51° E 19:23:56 10° NNE
Cosmos 1455 Rocket 2.9 19:16:23 10° S 19:20:44 70° E 19:25:04 10° NNE
Cosmos 405 Rocket 3.4 19:18:16 10° NNW 19:22:16 59° W 19:26:11 10° S
Cosmos 2237 Rocket 2.2 19:19:20 10° NNW 19:25:04 86° WSW 19:29:45 16° SSE
Cosmos 332 Rocket 3.7 19:21:27 10° NNW 19:26:20 64° ENE 19:28:03 38° SE
Meteor 2-8 Rocket 4.5 19:21:06 10° N 19:27:04 55° ENE 19:30:43 24° SSE
Cosmos 2297 Rocket 2.1 19:21:54 10° S 19:27:27 60° ESE 19:33:01 10° NNE
H-2A R/B 3.3 19:24:30 10° S 19:28:09 56° W 19:31:53 10° NNW
ALOS 3.5 19:24:35 10° S 19:29:01 42° W 19:33:29 10° NNW
SAR-Lupe-1 3.9 19:28:34 59° SSE 19:29:10 84° ENE 19:32:46 10° NNW
SAR-Lupe-4 3.6 19:29:01 36° S 19:30:23 80° W 19:33:58 10° NNW
Cosmos 1066 Rocket 4.1 19:27:20 10° N 19:32:57 69° ENE 19:36:02 27° SSE
CZ-2D R/B 3.5 19:30:04 17° S 19:32:57 67° WSW 19:36:47 10° NNW
Cosmos 2219 Rocket 3.3 19:28:45 10° NW 19:34:01 44° WSW 19:39:17 10° S
Cosmos 371 Rocket 3.3 19:30:14 10° NNW 19:35:05 59° ENE 19:35:46 53° ESE
Cosmos 962 Rocket 4.3 19:36:17 10° S 19:42:27 79° E 19:48:36 10° N
SJ-11-01 4.3 19:45:59 61° ENE 19:45:59 61° ENE 19:50:31 10° N
Resurs 01 Rocket 3.2 19:43:19 10° SSW 19:47:21 35° W 19:51:24 10° NNW
Cosmos 2227 Rocket 2.3 19:42:40 10° SSW 19:48:19 74° WNW 19:54:01 10° NNE
Cosmos 1441 Rocket 3.6 19:44:37 10° NNW 19:48:35 64° W 19:49:21 51° SSW
Meteor 1-21 4.3 19:54:37 10° N 19:59:46 58° NE 19:59:46 58° NE
Gbstr 26 Del rocket 4.5 19:57:38 10° WNW 20:00:29 25° NNW 20:00:29 25° NNW
SL-16 R/B 2.0 19:56:48 10° NNW 20:02:32 83° ENE 20:03:02 74° SE
NOSS 3-1 (A) 4.1 19:54:58 10° NW 20:02:35 76° WSW 20:06:34 34° SSE
GEOS 3 Rocket 3.5 20:01:29 50° NE 20:02:54 87° NW 20:08:12 10° SW
Cosmos 2218 Rocket 4.3 20:04:40 49° NE 20:04:40 49° NE 20:09:29 10° NNE
ERS-1 Rocket 3.7 20:05:00 41° NNE 20:05:00 41° NNE 20:08:27 10° N
OTV 4 3.7 20:02:55 10° WSW 20:03:01 11° WSW 20:03:01 11° WSW
ATLAS 2AS CENTAUR R/B 3.3 20:00:34 10° NNW 20:08:20 47° NE 20:09:17 45° ENE
Envisat 3.0 20:12:39 73° WSW 20:12:49 74° WSW 20:17:55 10° NNW
Atlas Centaur 2 4.0 20:08:30 10° SW 20:13:02 22° S 20:13:02 22° S
Helios 1B rocket 4.0 20:17:53 10° N 20:21:40 34° WNW 20:25:24 10° SW
SL-8 Rocket 4.0 20:22:35 37° SSW 20:25:16 81° W 20:31:38 10° N
H-2A R/B 4.4 21:09:24 16° N 21:09:24 16° N 21:10:32 10° N
Cosmos 2297 Rocket 4.2 21:07:23 10° WSW 21:11:55 24° NW 21:16:28 10° N
ATLAS 2AS CENTAUR R/B 4.2 21:51:51 10° NW 21:56:44 37° WNW 21:56:44 37° WNW
